Regional Weather Roundup
Issued by NWS Sioux Falls, SD

Home | Current Version | Previous Version | Text Only | Print | Product List | Glossary Off
Versions: 1 2 3 4 5 6 7 8 9 10 11 12 13 14 15 16 17 18 19 20 21 22 23 24 25 26 27 28 29 30 31 32 33 34 35 36 37 38 39 40 41 42 43 44 45 46 47 48 49 50

406
ASUS43 KFSD 071110
RWRFSD

WEATHER ROUNDUP FOR SE SOUTH DAKOTA/SW MINNESOTA/NW IOWA
NATIONAL WEATHER SERVICE SIOUX FALLS SD
500 AM CST WED DEC 07 2016

NOTE: "FAIR" INDICATES FEW OR NO CLOUDS BELOW 12,000 FEET WITH NO
SIGNIFICANT WEATHER AND OR OBSTRUCTIONS TO VISIBILITY.


SDZ038>040-050-052>070-071200-
SOUTHEAST SOUTH DAKOTA

CITY           SKY/WX    TMP DP  RH WIND       PRES   REMARKS
BROOKINGS      CLEAR      6   1  80 W22G30    30.06R WCI -15
CHAMBERLAIN    CLOUDY     9   2  73 W26G32    30.21F WCI -13
HURON          CLEAR      8   2  76 NW16      30.17R WCI -10
MADISON        FAIR       5   1  85 NW21G29   30.10R WCI -16
MITCHELL       CLEAR     10   2  69 W23       30.20R WCI -10
SIOUX FALLS    CLEAR      9   3  77 W21G29    30.14R WCI -11
WINNER         FAIR       8  -1  66 NW21      30.22S WCI -12
YANKTON        CLEAR     10   1  67 W17G23    30.22R WCI  -7
$$

MNZ071-072-080-081-089-090-097-098-071200-
SOUTHWEST MINNESOTA

CITY           SKY/WX    TMP DP  RH WIND       PRES   REMARKS
FAIRMONT       CLEAR     12   6  77 W21G26    30.06R WCI  -7
JACKSON        CLEAR     10   5  79 W24G31    30.04R WCI -10
LUVERNE        CLEAR      9   1  72 W17G23    30.13R WCI -10
MARSHALL       CLEAR     10   4  76 W22G29    30.05R WCI -10
MONTEVIDEO     CLOUDY    12   7  79 NW16G24   30.03R WCI  -4
PIPESTONE      CLEAR      9   3  78 NW22G28   30.05R WCI -11
REDWOOD FALLS  CLEAR     13   4  67 W20       30.03R WCI  -5
TRACY          CLEAR     11   5  77 W14G22    30.04R WCI  -5
WINDOM         CLEAR     10   5  79 W17G26    30.03R WCI  -7
WORTHINGTON    CLEAR      8   3  80 W18       30.07R WCI -11
$$

IAZ001>003-012>014-020>022-031-032-NEZ013-014-SDZ071-071200-
NORTHWEST IOWA

CITY           SKY/WX    TMP DP  RH WIND       PRES   REMARKS
CHEROKEE       CLEAR     12   6  78 W8G17     30.17R WCI   0
DENISON        CLOUDY    14   9  79 VRB7      30.16F WCI   4
ESTHERVILLE    CLEAR     11   6  81 W18G28    30.07R WCI  -7
LE MARS        PTCLDY    12   7  79 W14G20    30.19S WCI  -3
ORANGE CITY    CLOUDY    10   5  79 W25       30.13S WCI -10
SHELDON        PTCLDY    10   5  79 W18G25    30.11S WCI  -8
SIOUX CITY     CLOUDY    15   7  70 NW8       30.22R WCI   4
SPENCER        CLEAR     11   5  77 W26       30.11R WCI -10
STORM LAKE     FLURRIES  12   7  79 W20G26    30.13R WCI  -6
$$

ABBREVIATIONS USED IN REMARKS
   TC - TEMPERATURE IN CELSIUS
  WCI - WIND CHILL INDEX
   HX - HEAT INDEX
  VSB - VISIBILITY





USA.gov is the U.S. government's official web portal to all federal, state and local government web resources and services.